Location: Unspecified
(36.9193°S, 174.7252°E)
Time: 14:57:16
(UTC+12:00)

N. Korean satellite - Visible Passes

Search period start: 18 September 2021 00:00
Search period end: 28 September 2021 01:00
Orbit: 448 x 499 km, 97.3° (Epoch: 17 September)

Date Brightness Start Highest point End Pass type
(mag) Time Alt. Az. Time Alt. Az. Time Alt. Az.
18 Sep 6.5 05:02:24 10° N 05:06:03 68° W 05:09:48 10° SSW visible
19 Sep 7.6 04:34:50 10° NNE 04:38:23 48° ESE 04:42:01 10° S visible
20 Sep 9.3 04:07:58 10° ENE 04:10:50 21° ESE 04:13:43 10° SSE visible
20 Sep 7.9 05:41:05 10° NW 05:43:56 21° W 05:46:49 10° SW visible
20 Sep 10.0 18:42:32 10° SW 18:44:12 13° WSW 18:45:50 10° W visible
21 Sep 10.3 03:43:12 10° ESE 03:43:22 10° ESE 03:43:32 10° ESE visible
21 Sep 6.8 05:12:31 10° N 05:16:06 48° W 05:19:45 10° SSW visible
22 Sep 7.0 04:44:42 10° NNE 04:48:22 67° ESE 04:52:06 10° S visible
23 Sep 8.8 04:17:33 10° NE 04:20:45 28° ESE 04:24:00 10° SSE visible
24 Sep 10.0 03:51:23 10° E 03:53:15 13° ESE 03:55:06 10° SE visible
24 Sep 7.2 05:22:42 10° NNW 05:26:06 35° W 05:29:34 10° SSW visible
25 Sep 6.6 04:54:37 10° NNE 04:58:19 87° WNW 05:02:05 10° SSW visible
26 Sep 8.2 05:27:12 10° NE 05:30:39 38° ESE 05:34:08 10° S visible
27 Sep 9.6 05:00:34 10° ENE 05:03:04 17° ESE 05:05:36 10° SSE visible
27 Sep 7.6 06:32:56 10° NNW 06:36:05 26° W 06:39:15 10° SW visible
